TimePDT,TemperatureF,Dew PointF,Humidity,Sea Level PressureIn,VisibilityMPH,Wind Direction,Wind SpeedMPH,Gust SpeedMPH,PrecipitationIn,Events,Conditions,WindDirDegrees,DateUTC
12:56 AM,64.9,57.9,78,29.97,10.0,Calm,Calm,-,N/A,,Clear,0,2013-09-03 07:56:00
1:56 AM,64.0,57.9,80,29.97,10.0,Calm,Calm,-,N/A,,Clear,0,2013-09-03 08:56:00
2:56 AM,64.0,57.9,80,29.97,10.0,Calm,Calm,-,N/A,,Clear,0,2013-09-03 09:56:00
3:56 AM,64.0,57.0,78,29.97,10.0,Calm,Calm,-,N/A,,Clear,0,2013-09-03 10:56:00
4:56 AM,63.0,55.9,78,29.98,10.0,Calm,Calm,-,N/A,,Clear,0,2013-09-03 11:56:00
5:56 AM,62.1,55.0,78,29.98,10.0,Calm,Calm,-,N/A,,Clear,0,2013-09-03 12:56:00
6:56 AM,61.0,55.0,81,30.00,10.0,Calm,Calm,-,N/A,,Clear,0,2013-09-03 13:56:00
7:56 AM,64.0,57.0,78,30.01,10.0,Calm,Calm,-,N/A,,Clear,0,2013-09-03 14:56:00
8:56 AM,66.9,55.9,68,30.01,10.0,NE,3.5,-,N/A,,Clear,50,2013-09-03 15:56:00
9:56 AM,70.0,55.9,61,30.02,10.0,North,4.6,-,N/A,,Clear,10,2013-09-03 16:56:00
10:56 AM,73.0,54.0,51,30.03,10.0,Variable,3.5,-,N/A,,Clear,0,2013-09-03 17:56:00
11:56 AM,73.9,54.0,50,30.03,10.0,North,9.2,-,N/A,,Clear,350,2013-09-03 18:56:00
12:56 PM,78.1,51.1,39,30.01,10.0,NNW,15.0,-,N/A,,Clear,340,2013-09-03 19:56:00
1:56 PM,79.0,54.0,42,30.00,10.0,North,16.1,-,N/A,,Clear,360,2013-09-03 20:56:00
2:56 PM,79.0,55.9,45,29.98,10.0,NNW,18.4,25.3,N/A,,Clear,340,2013-09-03 21:56:00
3:56 PM,77.0,55.9,48,29.96,10.0,NNW,18.4,-,N/A,,Clear,340,2013-09-03 22:56:00
4:56 PM,77.0,57.9,52,29.96,10.0,NNW,17.3,-,N/A,,Clear,340,2013-09-03 23:56:00
5:56 PM,77.0,55.9,48,29.96,10.0,NNW,9.2,18.4,N/A,,Clear,330,2013-09-04 00:56:00
6:56 PM,73.0,55.0,53,29.96,10.0,NW,10.4,-,N/A,,Clear,320,2013-09-04 01:56:00
7:56 PM,69.1,55.9,63,29.97,10.0,NW,6.9,-,N/A,,Clear,310,2013-09-04 02:56:00
8:56 PM,66.9,55.9,68,30.00,10.0,NW,5.8,-,N/A,,Clear,320,2013-09-04 03:56:00
9:56 PM,66.0,57.0,73,30.00,10.0,NW,5.8,-,N/A,,Clear,320,2013-09-04 04:56:00
10:56 PM,64.9,55.9,73,30.01,10.0,Calm,Calm,-,N/A,,Clear,0,2013-09-04 05:56:00
11:56 PM,64.0,57.0,78,30.01,10.0,Calm,Calm,-,N/A,,Clear,0,2013-09-04 06:56:00